TimePST,TemperatureF,Dew PointF,Humidity,Sea Level PressureIn,VisibilityMPH,Wind Direction,Wind SpeedMPH,Gust SpeedMPH,PrecipitationIn,Events,Conditions,WindDirDegrees,DateUTC
12:56 AM,32.0,12.9,45,30.00,10.0,Calm,Calm,-,N/A,,Clear,0,2013-12-05 08:56:00
1:56 AM,32.0,12.0,44,30.00,10.0,Calm,Calm,-,N/A,,Clear,0,2013-12-05 09:56:00
2:56 AM,30.9,10.9,43,30.00,10.0,ENE,6.9,-,N/A,,Clear,70,2013-12-05 10:56:00
3:56 AM,30.9,10.0,42,30.00,10.0,East,5.8,-,N/A,,Clear,80,2013-12-05 11:56:00
4:56 AM,30.0,10.0,43,30.01,10.0,South,4.6,-,N/A,,Clear,170,2013-12-05 12:56:00
5:56 AM,30.0,9.0,41,30.02,10.0,South,4.6,-,N/A,,Clear,170,2013-12-05 13:56:00
6:56 AM,28.9,10.9,47,30.04,10.0,South,6.9,-,N/A,,Clear,180,2013-12-05 14:56:00
7:56 AM,30.9,10.0,42,30.06,10.0,South,4.6,-,N/A,,Clear,170,2013-12-05 15:56:00
8:56 AM,33.1,9.0,37,30.08,10.0,South,4.6,-,N/A,,Clear,190,2013-12-05 16:56:00
9:56 AM,35.1,9.0,34,30.09,10.0,SSE,5.8,-,N/A,,Clear,150,2013-12-05 17:56:00
10:56 AM,37.0,10.0,33,30.07,10.0,Variable,3.5,-,N/A,,Clear,0,2013-12-05 18:56:00
11:56 AM,37.0,9.0,31,30.04,10.0,SSE,4.6,-,N/A,,Clear,160,2013-12-05 19:56:00
12:56 PM,39.9,9.0,28,30.03,10.0,East,3.5,-,N/A,,Partly Cloudy,90,2013-12-05 20:56:00
1:56 PM,39.9,9.0,28,30.02,10.0,SE,3.5,-,N/A,,Partly Cloudy,140,2013-12-05 21:56:00
2:56 PM,39.9,9.0,28,30.02,10.0,Variable,3.5,-,N/A,,Partly Cloudy,0,2013-12-05 22:56:00
3:56 PM,39.0,8.1,28,30.02,10.0,Calm,Calm,-,N/A,,Partly Cloudy,0,2013-12-05 23:56:00
4:56 PM,37.9,8.1,29,30.04,10.0,SE,4.6,-,N/A,,Partly Cloudy,140,2013-12-06 00:56:00
5:56 PM,37.0,7.0,29,30.05,10.0,SSE,4.6,-,N/A,,Clear,160,2013-12-06 01:56:00
6:56 PM,37.0,7.0,29,30.06,10.0,South,4.6,-,N/A,,Clear,180,2013-12-06 02:56:00
7:56 PM,36.0,9.0,33,30.08,10.0,South,5.8,-,N/A,,Clear,190,2013-12-06 03:56:00
8:56 PM,34.0,12.9,42,30.08,10.0,SSW,6.9,-,N/A,,Clear,210,2013-12-06 04:56:00
9:56 PM,32.0,17.1,54,30.10,10.0,SSW,6.9,-,N/A,,Clear,200,2013-12-06 05:56:00
10:56 PM,32.0,17.1,54,30.11,10.0,SW,3.5,-,N/A,,Clear,230,2013-12-06 06:56:00
11:56 PM,30.9,16.0,54,30.12,10.0,SW,6.9,-,N/A,,Clear,230,2013-12-06 07:56:00